date,time,SUV Intensity [MED/Hr],UV Index,Daily total [MED],Since Last [MED]
23/10/2023,00:02:41,0.001,0.0,0.0,0.0
23/10/2023,00:03:41,-0.001,0.0,0.0,0.0
23/10/2023,00:04:41,-0.000,0.0,0.0,0.0
23/10/2023,00:05:41,-0.001,0.0,0.0,0.0
23/10/2023,00:06:42,0.001,0.0,0.0,0.0
23/10/2023,00:07:41,0.001,0.0,0.0,0.0
23/10/2023,00:08:41,-0.001,0.0,0.0,0.0
23/10/2023,00:09:42,0.000,0.0,0.0,0.0
23/10/2023,00:10:41,0.000,0.0,0.0,0.0
23/10/2023,00:11:41,0.001,0.0,0.0,0.0
23/10/2023,00:12:41,-0.001,0.0,0.0,0.0
23/10/2023,00:13:41,-0.000,0.0,0.0,0.0
23/10/2023,00:14:41,-0.001,0.0,0.0,0.0
23/10/2023,00:15:41,-0.001,0.0,0.0,0.0
23/10/2023,00:16:41,0.000,0.0,0.0,0.0
23/10/2023,00:17:41,0.000,0.0,0.0,0.0
23/10/2023,00:18:41,-0.001,0.0,0.0,0.0
23/10/2023,00:19:41,0.000,0.0,0.0,0.0
23/10/2023,00:20:41,0.000,0.0,0.0,0.0
23/10/2023,00:21:42,-0.001,0.0,0.0,0.0
23/10/2023,00:22:41,0.001,0.0,0.0,0.0
23/10/2023,00:23:41,0.000,0.0,0.0,0.0
23/10/2023,00:24:41,-0.000,0.0,0.0,0.0
23/10/2023,00:25:41,-0.001,0.0,0.0,0.0
23/10/2023,00:26:42,0.000,0.0,0.0,0.0
23/10/2023,00:27:42,-0.000,0.0,0.0,0.0
23/10/2023,00:28:42,-0.001,0.0,0.0,0.0
23/10/2023,00:29:41,0.000,0.0,0.0,0.0
23/10/2023,00:30:41,0.000,0.0,0.0,0.0
23/10/2023,00:31:41,0.000,0.0,0.0,0.0
23/10/2023,00:32:41,0.000,0.0,0.0,0.0
23/10/2023,00:33:41,0.000,0.0,0.0,0.0
23/10/2023,00:34:41,0.000,0.0,0.0,0.0
23/10/2023,00:35:42,0.001,0.0,0.0,0.0
23/10/2023,00:36:41,0.000,0.0,0.0,0.0
23/10/2023,00:37:42,-0.000,0.0,0.0,0.0
23/10/2023,00:38:41,0.000,0.0,0.0,0.0
23/10/2023,00:39:41,-0.000,0.0,0.0,0.0
23/10/2023,00:40:41,0.000,0.0,0.0,0.0
23/10/2023,00:41:41,-0.000,0.0,0.0,0.0
23/10/2023,00:42:41,0.000,0.0,0.0,0.0
23/10/2023,00:43:41,0.000,0.0,0.0,0.0
23/10/2023,00:44:42,0.000,0.0,0.0,0.0
23/10/2023,00:45:41,-0.001,0.0,0.0,0.0
23/10/2023,00:46:41,0.000,0.0,0.0,0.0
23/10/2023,00:47:41,0.000,0.0,0.0,0.0
23/10/2023,00:48:41,-0.000,0.0,0.0,0.0
23/10/2023,00:49:41,0.000,0.0,0.0,0.0
23/10/2023,00:50:41,0.001,0.0,0.0,0.0
23/10/2023,00:51:41,0.000,0.0,0.0,0.0
23/10/2023,00:52:41,-0.000,0.0,0.0,0.0
23/10/2023,00:53:42,0.001,0.0,0.0,0.0
23/10/2023,00:54:41,-0.001,0.0,0.0,0.0
23/10/2023,00:55:42,0.000,0.0,0.0,0.0
23/10/2023,00:56:41,-0.000,0.0,0.0,0.0
23/10/2023,00:57:42,-0.000,0.0,0.0,0.0
23/10/2023,00:58:41,-0.000,0.0,0.0,0.0
23/10/2023,00:59:42,0.000,0.0,0.0,0.0
23/10/2023,01:00:41,0.000,0.0,0.0,0.0
23/10/2023,01:01:41,-0.001,0.0,0.0,0.0
23/10/2023,01:02:41,0.000,0.0,0.0,0.0
23/10/2023,01:03:41,0.000,0.0,0.0,0.0
23/10/2023,01:04:41,0.000,0.0,0.0,0.0
23/10/2023,01:05:42,-0.001,0.0,0.0,0.0
23/10/2023,01:06:41,0.000,0.0,0.0,0.0
23/10/2023,01:07:42,-0.000,0.0,0.0,0.0
23/10/2023,01:08:41,-0.000,0.0,0.0,0.0
23/10/2023,01:09:42,0.000,0.0,0.0,0.0
23/10/2023,01:10:42,0.000,0.0,0.0,0.0
23/10/2023,01:11:41,-0.001,0.0,0.0,0.0
23/10/2023,01:12:42,0.000,0.0,0.0,0.0
23/10/2023,01:13:42,0.000,0.0,0.0,0.0
23/10/2023,01:14:41,-0.000,0.0,0.0,0.0
23/10/2023,01:15:41,0.002,0.0,0.0,0.0
23/10/2023,01:16:41,0.000,0.0,0.0,0.0
23/10/2023,01:17:41,0.000,0.0,0.0,0.0
23/10/2023,01:18:41,0.001,0.0,0.0,0.0
23/10/2023,01:19:43,-0.000,0.0,0.0,0.0
23/10/2023,01:20:42,0.000,0.0,0.0,0.0
23/10/2023,01:21:41,-0.001,0.0,0.0,0.0
23/10/2023,01:22:42,-0.000,0.0,0.0,0.0
23/10/2023,01:23:41,0.000,0.0,0.0,0.0
23/10/2023,01:24:41,0.001,0.0,0.0,0.0
23/10/2023,01:25:41,0.000,0.0,0.0,0.0
23/10/2023,01:26:41,-0.001,0.0,0.0,0.0
23/10/2023,01:27:41,0.001,0.0,0.0,0.0
23/10/2023,01:28:42,-0.000,0.0,0.0,0.0
23/10/2023,01:29:41,-0.000,0.0,0.0,0.0
23/10/2023,01:30:41,0.001,0.0,0.0,0.0
23/10/2023,01:31:42,0.000,0.0,0.0,0.0
23/10/2023,01:32:41,-0.000,0.0,0.0,0.0
23/10/2023,01:33:42,0.000,0.0,0.0,0.0
23/10/2023,01:34:41,0.000,0.0,0.0,0.0
23/10/2023,01:35:42,0.001,0.0,0.0,0.0
23/10/2023,01:36:41,0.001,0.0,0.0,0.0
23/10/2023,01:37:42,0.000,0.0,0.0,0.0
23/10/2023,01:38:41,0.000,0.0,0.0,0.0
23/10/2023,01:39:41,-0.000,0.0,0.0,0.0
23/10/2023,01:40:41,-0.000,0.0,0.0,0.0
23/10/2023,01:41:41,-0.001,0.0,0.0,0.0
23/10/2023,01:42:41,0.000,0.0,0.0,0.0
23/10/2023,01:43:41,0.000,0.0,0.0,0.0
23/10/2023,01:44:42,0.000,0.0,0.0,0.0
23/10/2023,01:45:41,0.000,0.0,0.0,0.0
23/10/2023,01:46:42,0.000,0.0,0.0,0.0
23/10/2023,01:47:41,0.000,0.0,0.0,0.0
23/10/2023,01:48:42,0.000,0.0,0.0,0.0
23/10/2023,01:49:41,0.001,0.0,0.0,0.0
23/10/2023,01:50:41,-0.001,0.0,0.0,0.0
23/10/2023,01:51:41,0.001,0.0,0.0,0.0
23/10/2023,01:52:41,0.000,0.0,0.0,0.0
23/10/2023,01:53:41,0.000,0.0,0.0,0.0
23/10/2023,01:54:41,-0.000,0.0,0.0,0.0
23/10/2023,01:55:41,0.001,0.0,0.0,0.0
23/10/2023,01:56:41,0.001,0.0,0.0,0.0
23/10/2023,01:57:41,0.000,0.0,0.0,0.0
23/10/2023,01:58:42,0.000,0.0,0.0,0.0
23/10/2023,01:59:41,0.000,0.0,0.0,0.0
23/10/2023,02:00:41,-0.000,0.0,0.0,0.0
23/10/2023,02:01:41,0.000,0.0,0.0,0.0
23/10/2023,02:02:41,-0.000,0.0,0.0,0.0
23/10/2023,02:03:41,0.001,0.0,0.0,0.0
23/10/2023,02:04:42,0.001,0.0,0.0,0.0
23/10/2023,02:05:41,0.000,0.0,0.0,0.0
23/10/2023,02:06:41,0.000,0.0,0.0,0.0
23/10/2023,02:07:42,0.001,0.0,0.0,0.0
23/10/2023,02:08:41,0.001,0.0,0.0,0.0
23/10/2023,02:09:41,0.001,0.0,0.0,0.0
23/10/2023,02:10:42,0.001,0.0,0.0,0.0
23/10/2023,02:11:41,0.001,0.0,0.0,0.0
23/10/2023,02:12:42,0.001,0.0,0.0,0.0
23/10/2023,02:13:42,0.001,0.0,0.0,0.0
23/10/2023,02:14:42,0.001,0.0,0.0,0.0
23/10/2023,02:15:41,0.001,0.0,0.0,0.0
23/10/2023,02:16:41,0.001,0.0,0.0,0.0
23/10/2023,02:17:41,0.001,0.0,0.0,0.0
23/10/2023,02:18:42,0.001,0.0,0.0,0.0
23/10/2023,02:19:41,0.002,0.0,0.0,0.0
23/10/2023,02:20:41,0.001,0.0,0.0,0.0
23/10/2023,02:21:42,0.001,0.0,0.0,0.0
23/10/2023,02:22:41,0.001,0.0,0.0,0.0
23/10/2023,02:23:42,-0.000,0.0,0.0,0.0
23/10/2023,02:24:41,0.001,0.0,0.0,0.0
23/10/2023,02:25:42,-0.000,0.0,0.0,0.0
23/10/2023,02:26:41,0.001,0.0,0.0,0.0
23/10/2023,02:27:41,0.002,0.0,0.0,0.0
23/10/2023,02:28:42,0.000,0.0,0.0,0.0
23/10/2023,02:29:41,0.002,0.0,0.0,0.0
23/10/2023,02:30:41,0.000,0.0,0.0,0.0
23/10/2023,02:31:41,-0.000,0.0,0.0,0.0
23/10/2023,02:32:41,0.001,0.0,0.0,0.0
23/10/2023,02:33:41,0.001,0.0,0.0,0.0
23/10/2023,02:34:41,0.000,0.0,0.0,0.0
23/10/2023,02:35:41,-0.000,0.0,0.0,0.0
23/10/2023,02:36:41,0.001,0.0,0.0,0.0
23/10/2023,02:37:41,0.001,0.0,0.0,0.0
23/10/2023,02:38:41,0.001,0.0,0.0,0.0
23/10/2023,02:39:41,0.000,0.0,0.0,0.0
23/10/2023,02:40:41,-0.000,0.0,0.0,0.0
23/10/2023,02:41:42,0.001,0.0,0.0,0.0
23/10/2023,02:42:41,0.001,0.0,0.0,0.0
23/10/2023,02:43:42,0.001,0.0,0.0,0.0
23/10/2023,02:44:41,0.001,0.0,0.0,0.0
23/10/2023,02:45:41,-0.000,0.0,0.0,0.0
23/10/2023,02:46:42,0.000,0.0,0.0,0.0
23/10/2023,02:47:41,0.001,0.0,0.0,0.0
23/10/2023,02:48:41,0.002,0.0,0.0,0.0
23/10/2023,02:49:42,0.000,0.0,0.0,0.0
23/10/2023,02:50:41,0.002,0.0,0.0,0.0
23/10/2023,02:51:42,0.001,0.0,0.0,0.0
23/10/2023,02:52:42,0.001,0.0,0.0,0.0
23/10/2023,02:53:42,0.001,0.0,0.0,0.0
23/10/2023,02:54:41,0.001,0.0,0.0,0.0
23/10/2023,02:55:42,0.001,0.0,0.0,0.0
23/10/2023,02:56:41,0.002,0.0,0.0,0.0
23/10/2023,02:57:41,0.000,0.0,0.0,0.0
23/10/2023,02:58:41,0.001,0.0,0.0,0.0
23/10/2023,02:59:42,0.001,0.0,0.0,0.0
23/10/2023,03:00:42,0.002,0.0,0.0,0.0
23/10/2023,03:01:42,0.000,0.0,0.0,0.0
23/10/2023,03:02:42,0.001,0.0,0.0,0.0
23/10/2023,03:03:41,0.002,0.0,0.0,0.0
23/10/2023,03:04:41,0.001,0.0,0.0,0.0
23/10/2023,03:05:42,0.001,0.0,0.0,0.0
23/10/2023,03:06:41,0.002,0.0,0.0,0.0
23/10/2023,03:07:41,0.002,0.0,0.0,0.0
23/10/2023,03:08:42,0.000,0.0,0.0,0.0
23/10/2023,03:09:42,0.001,0.0,0.0,0.0
23/10/2023,03:10:42,0.001,0.0,0.0,0.0
23/10/2023,03:11:42,0.001,0.0,0.0,0.0
23/10/2023,03:12:41,0.001,0.0,0.0,0.0
23/10/2023,03:13:42,0.001,0.0,0.0,0.0
23/10/2023,03:14:42,0.001,0.0,0.0,0.0
23/10/2023,03:15:41,0.002,0.0,0.0,0.0
23/10/2023,03:16:42,0.001,0.0,0.0,0.0
23/10/2023,03:17:41,0.001,0.0,0.0,0.0
23/10/2023,03:18:42,-0.000,0.0,0.0,0.0
23/10/2023,03:19:42,0.002,0.0,0.0,0.0
23/10/2023,03:20:42,0.001,0.0,0.0,0.0
23/10/2023,03:21:41,0.001,0.0,0.0,0.0
23/10/2023,03:22:41,0.001,0.0,0.0,0.0
23/10/2023,03:23:41,-0.000,0.0,0.0,0.0
23/10/2023,03:24:42,0.001,0.0,0.0,0.0
23/10/2023,03:25:42,0.001,0.0,0.0,0.0
23/10/2023,03:26:42,0.001,0.0,0.0,0.0
23/10/2023,03:27:42,0.002,0.0,0.0,0.0
23/10/2023,03:28:42,0.001,0.0,0.0,0.0
23/10/2023,03:29:41,0.001,0.0,0.0,0.0
23/10/2023,03:30:42,0.002,0.0,0.0,0.0
23/10/2023,03:31:41,0.001,0.0,0.0,0.0
23/10/2023,03:32:41,0.001,0.0,0.0,0.0
23/10/2023,03:33:41,0.002,0.0,0.0,0.0
23/10/2023,03:34:42,0.001,0.0,0.0,0.0
23/10/2023,03:35:41,0.001,0.0,0.0,0.0
23/10/2023,03:36:42,0.000,0.0,0.0,0.0
23/10/2023,03:37:41,0.002,0.0,0.0,0.0
23/10/2023,03:38:41,0.002,0.0,0.0,0.0
23/10/2023,03:39:42,0.001,0.0,0.0,0.0
23/10/2023,03:40:42,0.001,0.0,0.0,0.0
23/10/2023,03:41:41,0.001,0.0,0.0,0.0
23/10/2023,03:42:41,0.001,0.0,0.0,0.0
23/10/2023,03:43:42,0.001,0.0,0.0,0.0
23/10/2023,03:44:42,0.001,0.0,0.0,0.0
23/10/2023,03:45:41,0.002,0.0,0.0,0.0
23/10/2023,03:47:04,0.000,0.0,0.0,0.0
23/10/2023,03:47:41,0.000,0.0,0.0,0.0
23/10/2023,03:48:42,0.001,0.0,0.0,0.0
23/10/2023,03:49:41,0.001,0.0,0.0,0.0
23/10/2023,03:50:42,0.001,0.0,0.0,0.0
23/10/2023,03:51:41,0.001,0.0,0.0,0.0
23/10/2023,03:52:42,0.001,0.0,0.0,0.0
23/10/2023,03:53:41,0.001,0.0,0.0,0.0
23/10/2023,03:54:41,0.001,0.0,0.0,0.0
23/10/2023,03:55:41,0.002,0.0,0.0,0.0
23/10/2023,03:56:41,0.002,0.0,0.0,0.0
23/10/2023,03:57:42,0.002,0.0,0.0,0.0
23/10/2023,03:58:41,0.001,0.0,0.0,0.0
23/10/2023,03:59:41,0.001,0.0,0.0,0.0
23/10/2023,04:00:42,0.001,0.0,0.0,0.0
23/10/2023,04:01:41,0.000,0.0,0.0,0.0
23/10/2023,04:02:42,0.002,0.0,0.0,0.0
23/10/2023,04:03:42,0.001,0.0,0.0,0.0
23/10/2023,04:04:42,0.001,0.0,0.0,0.0
23/10/2023,04:05:41,0.001,0.0,0.0,0.0
23/10/2023,04:06:41,0.001,0.0,0.0,0.0
23/10/2023,04:07:42,0.001,0.0,0.0,0.0
23/10/2023,04:08:41,0.001,0.0,0.0,0.0
23/10/2023,04:09:41,0.001,0.0,0.0,0.0
23/10/2023,04:10:42,0.001,0.0,0.0,0.0
23/10/2023,04:11:42,0.002,0.0,0.0,0.0
23/10/2023,04:12:42,0.001,0.0,0.0,0.0
23/10/2023,04:13:42,0.001,0.0,0.0,0.0
23/10/2023,04:14:42,0.001,0.0,0.0,0.0
23/10/2023,04:15:41,0.001,0.0,0.0,0.0
23/10/2023,04:16:42,0.001,0.0,0.0,0.0
23/10/2023,04:17:41,0.001,0.0,0.0,0.0
23/10/2023,04:18:42,0.000,0.0,0.0,0.0
23/10/2023,04:19:42,0.001,0.0,0.0,0.0
23/10/2023,04:20:42,0.001,0.0,0.0,0.0
23/10/2023,04:21:42,0.001,0.0,0.0,0.0
23/10/2023,04:22:42,0.001,0.0,0.0,0.0
23/10/2023,04:23:42,0.001,0.0,0.0,0.0
23/10/2023,04:24:42,0.001,0.0,0.0,0.0
23/10/2023,04:25:41,0.001,0.0,0.0,0.0
23/10/2023,04:26:41,0.001,0.0,0.0,0.0
23/10/2023,04:27:42,0.001,0.0,0.0,0.0
23/10/2023,04:28:41,0.001,0.0,0.0,0.0
23/10/2023,04:29:41,0.001,0.0,0.0,0.0
23/10/2023,04:30:42,0.001,0.0,0.0,0.0
23/10/2023,04:31:41,0.001,0.0,0.0,0.0
23/10/2023,04:32:41,0.001,0.0,0.0,0.0
23/10/2023,04:33:42,0.001,0.0,0.0,0.0
23/10/2023,04:34:42,0.001,0.0,0.0,0.0
23/10/2023,04:35:42,0.002,0.0,0.0,0.0
23/10/2023,04:36:42,0.001,0.0,0.0,0.0
23/10/2023,04:37:42,0.000,0.0,0.0,0.0
23/10/2023,04:38:41,0.001,0.0,0.0,0.0
23/10/2023,04:39:42,0.001,0.0,0.0,0.0
23/10/2023,04:40:42,0.001,0.0,0.0,0.0
23/10/2023,04:41:42,0.001,0.0,0.0,0.0
23/10/2023,04:42:41,0.001,0.0,0.0,0.0
23/10/2023,04:43:41,0.002,0.0,0.0,0.0
23/10/2023,04:44:42,0.001,0.0,0.0,0.0
23/10/2023,04:45:42,0.001,0.0,0.0,0.0
23/10/2023,04:46:42,0.001,0.0,0.0,0.0
23/10/2023,04:47:42,0.001,0.0,0.0,0.0
23/10/2023,04:48:42,0.000,0.0,0.0,0.0
23/10/2023,04:49:41,0.001,0.0,0.0,0.0
23/10/2023,04:50:42,0.000,0.0,0.0,0.0
23/10/2023,04:51:41,0.001,0.0,0.0,0.0
23/10/2023,04:52:42,0.002,0.0,0.0,0.0
23/10/2023,04:53:40,0.001,0.0,0.0,0.0
23/10/2023,04:55:03,0.001,0.0,0.0,0.0
23/10/2023,04:55:41,0.001,0.0,0.0,0.0
23/10/2023,04:56:42,0.001,0.0,0.0,0.0
23/10/2023,04:57:42,0.001,0.0,0.0,0.0
23/10/2023,04:58:42,0.001,0.0,0.0,0.0
23/10/2023,04:59:42,0.001,0.0,0.0,0.0
23/10/2023,05:00:42,0.001,0.0,0.0,0.0
23/10/2023,05:01:42,-0.000,0.0,0.0,0.0
23/10/2023,05:02:42,0.001,0.0,0.0,0.0
23/10/2023,05:03:42,0.001,0.0,0.0,0.0
23/10/2023,05:04:42,0.001,0.0,0.0,0.0
23/10/2023,05:05:42,0.002,0.0,0.0,0.0
23/10/2023,05:06:42,0.001,0.0,0.0,0.0
23/10/2023,05:07:42,0.001,0.0,0.0,0.0
23/10/2023,05:08:42,0.001,0.0,0.0,0.0
23/10/2023,05:09:42,0.001,0.0,0.0,0.0
23/10/2023,05:10:41,0.001,0.0,0.0,0.0
23/10/2023,05:11:41,0.001,0.0,0.0,0.0
23/10/2023,05:12:42,0.001,0.0,0.0,0.0
23/10/2023,05:13:42,0.000,0.0,0.0,0.0
23/10/2023,05:14:41,0.001,0.0,0.0,0.0
23/10/2023,05:15:41,0.001,0.0,0.0,0.0
23/10/2023,05:16:42,0.000,0.0,0.0,0.0
23/10/2023,05:17:41,0.001,0.0,0.0,0.0
23/10/2023,05:18:42,0.001,0.0,0.0,0.0
23/10/2023,05:19:42,0.001,0.0,0.0,0.0
23/10/2023,05:20:42,0.001,0.0,0.0,0.0
23/10/2023,05:21:41,0.000,0.0,0.0,0.0
23/10/2023,05:22:42,0.001,0.0,0.0,0.0
23/10/2023,05:23:41,0.001,0.0,0.0,0.0
23/10/2023,05:24:41,0.000,0.0,0.0,0.0
23/10/2023,05:25:42,0.001,0.0,0.0,0.0
23/10/2023,05:26:42,0.001,0.0,0.0,0.0
23/10/2023,05:27:42,0.001,0.0,0.0,0.0
23/10/2023,05:28:42,0.000,0.0,0.0,0.0
23/10/2023,05:29:42,0.002,0.0,0.0,0.0
23/10/2023,05:30:42,0.001,0.0,0.0,0.0
23/10/2023,05:31:42,0.001,0.0,0.0,0.0
23/10/2023,05:32:41,0.001,0.0,0.0,0.0
23/10/2023,05:33:41,-0.000,0.0,0.0,0.0
23/10/2023,05:34:42,0.001,0.0,0.0,0.0
23/10/2023,05:35:42,0.001,0.0,0.0,0.0
23/10/2023,05:36:42,0.001,0.0,0.0,0.0
23/10/2023,05:37:42,0.001,0.0,0.0,0.0
23/10/2023,05:38:42,0.001,0.0,0.0,0.0
23/10/2023,05:39:41,0.001,0.0,0.0,0.0
23/10/2023,05:40:41,0.001,0.0,0.0,0.0
23/10/2023,05:41:42,0.001,0.0,0.0,0.0
23/10/2023,05:42:42,0.001,0.0,0.0,0.0
23/10/2023,05:43:42,0.000,0.0,0.0,0.0
23/10/2023,05:44:42,0.000,0.0,0.0,0.0
23/10/2023,05:45:42,0.001,0.0,0.0,0.0
23/10/2023,05:46:41,0.001,0.0,0.0,0.0
23/10/2023,05:47:42,0.001,0.0,0.0,0.0
23/10/2023,05:48:42,-0.000,0.0,0.0,0.0
23/10/2023,05:49:42,0.001,0.0,0.0,0.0
23/10/2023,05:50:42,0.001,0.0,0.0,0.0
23/10/2023,05:51:42,0.000,0.0,0.0,0.0
23/10/2023,05:52:42,0.002,0.0,0.0,0.0
23/10/2023,05:53:42,0.001,0.0,0.0,0.0
23/10/2023,05:54:42,0.001,0.0,0.0,0.0
23/10/2023,05:55:42,0.001,0.0,0.0,0.0
23/10/2023,05:56:42,0.001,0.0,0.0,0.0
23/10/2023,05:57:41,0.001,0.0,0.0,0.0
23/10/2023,05:58:42,0.001,0.0,0.0,0.0
23/10/2023,05:59:42,-0.000,0.0,0.0,0.0
23/10/2023,06:00:42,0.001,0.0,0.0,0.0
23/10/2023,06:01:42,0.001,0.0,0.0,0.0
23/10/2023,06:02:42,0.000,0.0,0.0,0.0
23/10/2023,06:03:42,0.001,0.0,0.0,0.0
23/10/2023,06:04:41,0.001,0.0,0.0,0.0
23/10/2023,06:05:42,0.001,0.0,0.0,0.0
23/10/2023,06:06:42,0.001,0.0,0.0,0.0
23/10/2023,06:07:42,0.001,0.0,0.0,0.0
23/10/2023,06:08:41,0.001,0.0,0.0,0.0
23/10/2023,06:09:42,0.002,0.0,0.0,0.0
23/10/2023,06:10:41,0.001,0.0,0.0,0.0
23/10/2023,06:11:42,0.001,0.0,0.0,0.0
23/10/2023,06:12:42,0.000,0.0,0.0,0.0
23/10/2023,06:13:42,0.001,0.0,0.0,0.0
23/10/2023,06:14:42,0.001,0.0,0.0,0.0
23/10/2023,06:15:42,0.001,0.0,0.0,0.0
23/10/2023,06:16:41,0.001,0.0,0.0,0.0
23/10/2023,06:17:42,0.001,0.0,0.0,0.0
23/10/2023,06:18:42,0.001,0.0,0.0,0.0
23/10/2023,06:19:42,0.001,0.0,0.0,0.0
23/10/2023,06:20:42,0.001,0.0,0.0,0.0
23/10/2023,06:21:42,0.002,0.0,0.0,0.0
23/10/2023,06:22:41,0.001,0.0,0.0,0.0
23/10/2023,06:23:42,0.001,0.0,0.0,0.0
23/10/2023,06:24:42,0.002,0.0,0.0,0.0
23/10/2023,06:25:42,0.001,0.0,0.0,0.0
23/10/2023,06:26:42,0.001,0.0,0.0,0.0
23/10/2023,06:27:42,0.000,0.0,0.0,0.0
23/10/2023,06:28:41,0.001,0.0,0.0,0.0
23/10/2023,06:29:42,0.002,0.0,0.0,0.0
23/10/2023,06:30:41,0.001,0.0,0.0,0.0
23/10/2023,06:31:40,0.001,0.0,0.0,0.0
23/10/2023,06:33:12,0.001,0.0,0.0,0.0
23/10/2023,06:34:42,0.002,0.0,0.0,0.0
23/10/2023,06:35:42,0.002,0.0,0.0,0.0
23/10/2023,06:36:41,0.002,0.0,0.0,0.0
23/10/2023,06:37:42,0.002,0.0,0.0,0.0
23/10/2023,06:38:42,0.002,0.0,0.0,0.0
23/10/2023,06:39:42,0.002,0.0,0.0,0.0
23/10/2023,06:40:42,0.002,0.0,0.0,0.0
23/10/2023,06:41:42,0.002,0.0,0.0,0.0
23/10/2023,06:42:42,0.003,0.0,0.0,0.0
23/10/2023,06:43:42,0.003,0.0,0.0,0.0
23/10/2023,06:44:41,0.002,0.0,0.0,0.0
23/10/2023,06:45:42,0.002,0.0,0.0,0.0
23/10/2023,06:46:41,0.003,0.0,0.0,0.0
23/10/2023,06:47:43,0.004,0.0,0.0,0.0
23/10/2023,06:48:42,0.003,0.0,0.0,0.0
23/10/2023,06:49:42,0.004,0.0,0.0,0.0
23/10/2023,06:50:42,0.003,0.0,0.0,0.0
23/10/2023,06:51:42,0.004,0.0,0.0,0.0
23/10/2023,06:52:41,0.004,0.0,0.0,0.0
23/10/2023,06:53:42,0.004,0.0,0.0,0.0
23/10/2023,06:54:41,0.005,0.0,0.0,0.0
23/10/2023,06:55:42,0.005,0.0,0.0,0.0
23/10/2023,06:56:42,0.005,0.0,0.0,0.0
23/10/2023,06:57:42,0.006,0.0,0.0,0.0
23/10/2023,06:58:41,0.006,0.0,0.0,0.0
23/10/2023,06:59:42,0.006,0.0,0.0,0.0
23/10/2023,07:00:42,0.006,0.0,0.0,0.0
23/10/2023,07:01:42,0.007,0.0,0.0,0.0
23/10/2023,07:02:42,0.008,0.0,0.0,0.0
23/10/2023,07:03:42,0.007,0.0,0.0,0.0
23/10/2023,07:04:42,0.008,0.0,0.001,0.001
23/10/2023,07:05:42,0.008,0.0,0.001,0.0
23/10/2023,07:06:42,0.009,0.0,0.001,0.0
23/10/2023,07:07:42,0.008,0.0,0.001,0.0
23/10/2023,07:08:42,0.009,0.0,0.001,0.0
23/10/2023,07:09:42,0.010,0.0,0.001,0.0
23/10/2023,07:10:42,0.009,0.0,0.001,0.0
23/10/2023,07:11:42,0.010,0.0,0.002,0.001
23/10/2023,07:12:41,0.011,0.0,0.002,0.0
23/10/2023,07:13:42,0.011,0.0,0.002,0.0
23/10/2023,07:14:42,0.012,0.0,0.002,0.0
23/10/2023,07:15:42,0.012,0.0,0.002,0.0
23/10/2023,07:16:42,0.013,0.0,0.003,0.001
23/10/2023,07:17:42,0.013,0.0,0.003,0.0
23/10/2023,07:18:42,0.014,0.0,0.003,0.0
23/10/2023,07:19:42,0.014,0.0,0.003,0.0
23/10/2023,07:20:42,0.016,0.0,0.003,0.0
23/10/2023,07:21:42,0.015,0.0,0.004,0.001
23/10/2023,07:22:42,0.016,0.0,0.004,0.0
23/10/2023,07:23:42,0.016,0.0,0.004,0.0
23/10/2023,07:24:42,0.018,0.0,0.005,0.001
23/10/2023,07:25:42,0.018,0.0,0.005,0.0
23/10/2023,07:26:42,0.019,0.0,0.005,0.0
23/10/2023,07:27:42,0.021,0.0,0.006,0.001
23/10/2023,07:28:42,0.021,0.0,0.006,0.0
23/10/2023,07:29:42,0.022,0.0,0.006,0.0
23/10/2023,07:30:42,0.023,0.0,0.007,0.001
23/10/2023,07:31:42,0.023,0.0,0.007,0.0
23/10/2023,07:32:41,0.024,0.0,0.007,0.0
23/10/2023,07:33:41,0.024,0.0,0.008,0.001
23/10/2023,07:34:42,0.026,0.0,0.008,0.0
23/10/2023,07:35:42,0.027,0.0,0.009,0.001
23/10/2023,07:36:42,0.028,0.0,0.009,0.0
23/10/2023,07:37:42,0.028,0.0,0.01,0.001
23/10/2023,07:38:42,0.029,0.0,0.01,0.0
23/10/2023,07:39:42,0.030,0.0,0.011,0.001
23/10/2023,07:40:42,0.031,0.0,0.011,0.0
23/10/2023,07:41:41,0.032,0.0,0.012,0.001
23/10/2023,07:42:42,0.033,0.0,0.012,0.0
23/10/2023,07:43:42,0.034,0.0,0.013,0.001
23/10/2023,07:44:41,0.035,0.0,0.013,0.0
23/10/2023,07:45:42,0.036,0.0,0.014,0.001
23/10/2023,07:46:42,0.037,0.0,0.014,0.0
23/10/2023,07:47:42,0.038,0.0,0.015,0.001
23/10/2023,07:48:42,0.039,0.0,0.016,0.001
23/10/2023,07:49:42,0.040,0.0,0.016,0.0
23/10/2023,07:50:42,0.041,0.0,0.017,0.001
23/10/2023,07:51:42,0.042,0.0,0.018,0.001
23/10/2023,07:52:42,0.043,0.0,0.018,0.0
23/10/2023,07:53:42,0.044,0.0,0.019,0.001
23/10/2023,07:54:42,0.045,0.0,0.02,0.001
23/10/2023,07:55:42,0.045,0.0,0.021,0.001
23/10/2023,07:56:42,0.047,0.0,0.021,0.0
23/10/2023,07:57:42,0.047,0.0,0.022,0.001
23/10/2023,07:58:42,0.049,0.0,0.023,0.001
23/10/2023,07:59:42,0.050,0.0,0.024,0.001
23/10/2023,08:00:42,0.050,0.0,0.025,0.001
23/10/2023,08:01:42,0.052,0.0,0.025,0.0
23/10/2023,08:02:42,0.053,0.0,0.026,0.001
23/10/2023,08:03:42,0.054,0.0,0.027,0.001
23/10/2023,08:04:42,0.055,0.0,0.028,0.001
23/10/2023,08:05:42,0.055,0.0,0.029,0.001
23/10/2023,08:06:42,0.056,0.0,0.03,0.001
23/10/2023,08:07:42,0.057,0.0,0.031,0.001
23/10/2023,08:08:42,0.059,0.0,0.032,0.001
23/10/2023,08:09:42,0.060,0.0,0.033,0.001
23/10/2023,08:10:42,0.062,0.0,0.034,0.001
23/10/2023,08:11:42,0.063,0.0,0.035,0.001
23/10/2023,08:12:42,0.065,0.0,0.036,0.001
23/10/2023,08:13:42,0.067,0.0,0.037,0.001
23/10/2023,08:14:42,0.068,0.0,0.038,0.001
23/10/2023,08:15:42,0.069,0.0,0.039,0.001
23/10/2023,08:16:43,0.071,0.0,0.04,0.001
23/10/2023,08:17:42,0.073,0.0,0.042,0.002
23/10/2023,08:18:42,0.074,0.0,0.043,0.001
23/10/2023,08:19:42,0.076,0.0,0.044,0.001
23/10/2023,08:20:42,0.078,0.0,0.045,0.001
23/10/2023,08:21:42,0.079,0.0,0.047,0.002
23/10/2023,08:22:42,0.082,0.0,0.048,0.001
23/10/2023,08:23:42,0.083,0.0,0.049,0.001
23/10/2023,08:24:42,0.084,0.0,0.051,0.002
23/10/2023,08:25:42,0.086,0.0,0.052,0.001
23/10/2023,08:26:42,0.087,0.0,0.054,0.002
23/10/2023,08:27:42,0.091,0.0,0.055,0.001
23/10/2023,08:28:42,0.093,0.0,0.057,0.002
23/10/2023,08:29:42,0.094,0.0,0.058,0.001
23/10/2023,08:30:42,0.096,0.0,0.06,0.002
23/10/2023,08:31:42,0.099,0.0,0.062,0.002
23/10/2023,08:32:42,0.100,0.0,0.063,0.001
23/10/2023,08:33:42,0.102,0.0,0.065,0.002
23/10/2023,08:34:42,0.103,0.0,0.067,0.002
23/10/2023,08:35:42,0.105,0.0,0.068,0.001
23/10/2023,08:36:42,0.107,0.0,0.07,0.002
23/10/2023,08:37:42,0.107,0.0,0.072,0.002
23/10/2023,08:38:42,0.109,0.0,0.074,0.002
23/10/2023,08:39:42,0.111,0.0,0.075,0.001
23/10/2023,08:40:43,0.111,0.0,0.077,0.002
23/10/2023,08:41:42,0.111,0.0,0.079,0.002
23/10/2023,08:42:42,0.113,0.0,0.081,0.002
23/10/2023,08:43:42,0.114,0.0,0.083,0.002
23/10/2023,08:44:42,0.114,0.0,0.085,0.002
23/10/2023,08:45:42,0.115,0.0,0.087,0.002
23/10/2023,08:46:42,0.118,0.0,0.089,0.002
23/10/2023,08:47:42,0.117,0.0,0.091,0.002
23/10/2023,08:48:42,0.118,0.0,0.093,0.002
23/10/2023,08:49:42,0.120,0.0,0.095,0.002
23/10/2023,08:50:42,0.121,0.0,0.097,0.002
23/10/2023,08:51:42,0.122,0.0,0.099,0.002
23/10/2023,08:52:42,0.124,0.0,0.101,0.002
23/10/2023,08:53:42,0.125,0.0,0.103,0.002
23/10/2023,08:54:42,0.127,0.0,0.105,0.002
23/10/2023,08:55:42,0.129,0.0,0.107,0.002
23/10/2023,08:56:42,0.129,0.0,0.109,0.002
23/10/2023,08:57:42,0.131,0.0,0.111,0.002
23/10/2023,08:58:42,0.133,0.0,0.114,0.003
23/10/2023,08:59:42,0.135,0.0,0.116,0.002
23/10/2023,09:00:42,0.137,0.0,0.118,0.002
23/10/2023,09:01:42,0.138,0.0,0.12,0.002
23/10/2023,09:02:42,0.138,0.0,0.123,0.003
23/10/2023,09:03:43,0.141,0.0,0.125,0.002
23/10/2023,09:04:42,0.145,0.0,0.127,0.002
23/10/2023,09:05:42,0.146,0.0,0.13,0.003
23/10/2023,09:06:42,0.150,0.0,0.132,0.002
23/10/2023,09:07:42,0.154,0.0,0.135,0.003
23/10/2023,09:08:42,0.157,0.0,0.137,0.002
23/10/2023,09:09:42,0.160,0.0,0.14,0.003
23/10/2023,09:10:42,0.162,0.0,0.143,0.003
23/10/2023,09:11:42,0.165,0.0,0.145,0.002
23/10/2023,09:12:42,0.167,0.0,0.148,0.003
23/10/2023,09:13:42,0.168,0.0,0.151,0.003
23/10/2023,09:14:42,0.170,0.0,0.154,0.003
23/10/2023,09:15:42,0.172,0.0,0.157,0.003
23/10/2023,09:16:42,0.176,0.0,0.16,0.003
23/10/2023,09:17:42,0.179,0.0,0.163,0.003
23/10/2023,09:18:42,0.183,0.0,0.166,0.003
23/10/2023,09:19:42,0.183,0.0,0.169,0.003
23/10/2023,09:20:42,0.187,0.0,0.172,0.003
23/10/2023,09:21:42,0.187,0.0,0.175,0.003
23/10/2023,09:22:42,0.184,0.0,0.178,0.003
23/10/2023,09:23:42,0.183,0.0,0.181,0.003
23/10/2023,09:24:43,0.185,0.0,0.184,0.003
23/10/2023,09:25:42,0.183,0.0,0.187,0.003
23/10/2023,09:26:42,0.181,0.0,0.19,0.003
23/10/2023,09:27:42,0.185,0.0,0.193,0.003
23/10/2023,09:28:42,0.196,0.0,0.196,0.003
23/10/2023,09:29:42,0.197,0.0,0.2,0.004
23/10/2023,09:30:42,0.200,0.0,0.203,0.003
23/10/2023,09:31:44,0.203,0.0,0.206,0.003
23/10/2023,09:32:42,0.205,0.0,0.21,0.004
23/10/2023,09:33:43,0.207,0.0,0.213,0.003
23/10/2023,09:34:42,0.210,0.0,0.217,0.004
23/10/2023,09:35:42,0.212,0.0,0.22,0.003
23/10/2023,09:36:42,0.216,0.0,0.224,0.004
23/10/2023,09:37:42,0.217,1.0,0.227,0.003
23/10/2023,09:38:42,0.219,1.0,0.231,0.004
23/10/2023,09:39:42,0.221,1.0,0.235,0.004
23/10/2023,09:40:42,0.223,1.0,0.238,0.003
23/10/2023,09:41:42,0.226,1.0,0.242,0.004
23/10/2023,09:42:42,0.229,1.0,0.246,0.004
23/10/2023,09:43:43,0.230,1.0,0.25,0.004
23/10/2023,09:44:42,0.232,1.0,0.254,0.004
23/10/2023,09:45:43,0.235,1.0,0.257,0.003
23/10/2023,09:46:42,0.238,1.0,0.261,0.004
23/10/2023,09:47:42,0.238,1.0,0.265,0.004
23/10/2023,09:48:42,0.240,1.0,0.269,0.004
23/10/2023,09:49:43,0.240,1.0,0.273,0.004
23/10/2023,09:50:42,0.240,1.0,0.277,0.004
23/10/2023,09:51:42,0.239,1.0,0.281,0.004
23/10/2023,09:52:42,0.240,1.0,0.285,0.004
23/10/2023,09:53:42,0.239,1.0,0.289,0.004
23/10/2023,09:54:42,0.238,1.0,0.293,0.004
23/10/2023,09:55:42,0.239,1.0,0.297,0.004
23/10/2023,09:56:42,0.237,1.0,0.301,0.004
23/10/2023,09:57:42,0.241,1.0,0.305,0.004
23/10/2023,09:58:42,0.244,1.0,0.309,0.004
23/10/2023,09:59:42,0.245,1.0,0.313,0.004
23/10/2023,10:00:42,0.247,1.0,0.317,0.004
23/10/2023,10:01:42,0.248,1.0,0.322,0.005
23/10/2023,10:02:42,0.250,1.0,0.326,0.004
23/10/2023,10:03:42,0.253,1.0,0.33,0.004
23/10/2023,10:04:42,0.254,1.0,0.334,0.004
23/10/2023,10:05:42,0.256,1.0,0.338,0.004
23/10/2023,10:06:42,0.259,1.0,0.343,0.005
23/10/2023,10:07:42,0.264,1.0,0.347,0.004
23/10/2023,10:08:42,0.265,1.0,0.351,0.004
23/10/2023,10:09:42,0.267,1.0,0.356,0.005
23/10/2023,10:10:42,0.270,1.0,0.36,0.004
23/10/2023,10:11:42,0.273,1.0,0.365,0.005
23/10/2023,10:12:42,0.272,1.0,0.369,0.004